Kuiper-00031

operational
NORAD ID: 63744 Int'l Des: 2025-088 Owner: KUIP Country: US Constellation: kuiper
LEOCIRCULAR

Über Kuiper-00031

Beschreibung wird geladen...

Live-Position

3D-Globus wird geladen...

Nächste Überflüge

Höhenverlauf

Altitude vs Time

uPlot chart will show altitude changes over time

Zweizeiliger Elementsatz

1 63744U 25088W 25261.25011574 -.00053063 00000-0 -68300-2 0 9996
2 63744 51.8985 139.1528 0003460 250.0377 80.4480 14.80874244 5302
Epoch: 18. Sept. 2025 • Age: 17 hours

Aktueller Status

Höhe 627.7 km
Geschwindigkeit 7.55 km/s
Subsatellitenpunkt -7.50°S, 24.02°W
Startdatum 28. Apr. 2025
Alter 0.3 years
Typ internet

Technische Details

Klassifizierung Payload
Masse 490.00 kg
Trockenmasse 490.00 kg
Gesamtmasse 490.00 kg
Länge 1.80 m
Durchmesser 0.70 m
Spannweite 5.00 m
Form Box + 2 pan
Hersteller KUIP
Bus-Typ Kuiper
Phasenstatus In Orbit
Besitzer/Staat KUIP/US

Große Konstellationen

Loading constellations...